Time,TemperatureF,DewpointF,PressureIn,WindDirection,WindDirectionDegrees,WindSpeedMPH,WindSpeedGustMPH,Humidity,HourlyPrecipIn,Conditions,Clouds,dailyrainin,SoftwareType,DateUTC
2014-01-01 00:07:00,20.8,14.7,30.17,NNW,337,2.2,-999.0,77,-99.99,,,0.00,Acu-Link.com,2014-01-01 05:07:00,
2014-01-01 00:22:00,20.7,14.7,30.17,South,180,2.2,-999.0,77,-99.99,,,0.00,Acu-Link.com,2014-01-01 05:22:00,
2014-01-01 00:37:00,20.1,14.4,30.16,SW,225,2.2,-999.0,78,-99.99,,,0.00,Acu-Link.com,2014-01-01 05:37:00,
2014-01-01 00:52:00,19.8,14.4,30.16,West,270,1.1,-999.0,79,-99.99,,,0.00,Acu-Link.com,2014-01-01 05:52:00,
2014-01-01 01:07:00,19.4,14.3,30.16,West,270,1.7,-999.0,80,-99.99,,,0.00,Acu-Link.com,2014-01-01 06:07:00,
2014-01-01 01:23:00,19.2,14.3,30.17,SW,225,1.7,-999.0,81,-99.99,,,0.00,Acu-Link.com,2014-01-01 06:23:00,
2014-01-01 01:38:00,18.9,14.1,30.17,West,270,1.1,-999.0,81,-99.99,,,0.00,Acu-Link.com,2014-01-01 06:38:00,
2014-01-01 01:53:00,18.9,14.3,30.18,West,270,1.1,-999.0,82,-99.99,,,0.00,Acu-Link.com,2014-01-01 06:53:00,
2014-01-01 02:08:00,18.7,14.1,30.20,WSW,247,2.7,-999.0,82,-99.99,,,0.00,Acu-Link.com,2014-01-01 07:08:00,
2014-01-01 02:23:00,18.7,14.4,30.20,West,270,3.2,-999.0,83,-99.99,,,0.00,Acu-Link.com,2014-01-01 07:23:00,
2014-01-01 02:38:00,19.0,14.7,30.20,WSW,247,3.2,-999.0,83,-99.99,,,0.00,Acu-Link.com,2014-01-01 07:38:00,
2014-01-01 02:53:00,18.9,14.6,30.21,SW,225,1.7,-999.0,83,-99.99,,,0.00,Acu-Link.com,2014-01-01 07:53:00,
2014-01-01 03:09:00,18.7,14.7,30.21,West,270,0.0,-999.0,84,-99.99,,,0.00,Acu-Link.com,2014-01-01 08:09:00,
2014-01-01 03:39:00,18.5,15.0,30.21,NW,315,2.7,-999.0,86,-99.99,,,0.00,Acu-Link.com,2014-01-01 08:39:00,
2014-01-01 03:55:00,18.5,15.0,30.22,WNW,292,3.2,-999.0,86,-99.99,,,0.00,Acu-Link.com,2014-01-01 08:55:00,
2014-01-01 04:10:00,18.5,15.3,30.22,West,270,1.7,-999.0,87,-99.99,,,0.00,Acu-Link.com,2014-01-01 09:10:00,
2014-01-01 04:28:00,19.0,15.8,30.22,WSW,247,1.7,-999.0,87,-99.99,,,0.00,Acu-Link.com,2014-01-01 09:28:00,
2014-01-01 04:43:00,19.0,15.8,30.23,NNW,337,0.0,-999.0,87,-99.99,,,0.00,Acu-Link.com,2014-01-01 09:43:00,
2014-01-01 05:02:00,18.9,15.9,30.24,WNW,292,1.7,-999.0,88,-99.99,,,0.00,Acu-Link.com,2014-01-01 10:02:00,
2014-01-01 05:25:00,18.9,15.9,30.23,West,270,1.1,-999.0,88,-99.99,,,0.00,Acu-Link.com,2014-01-01 10:25:00,
2014-01-01 05:43:00,18.5,15.8,30.23,SW,225,0.0,-999.0,89,-99.99,,,0.00,Acu-Link.com,2014-01-01 10:43:00,
2014-01-01 05:59:00,18.5,16.1,30.23,SSE,157,0.0,-999.0,90,-99.99,,,0.00,Acu-Link.com,2014-01-01 10:59:00,
2014-01-01 06:16:00,19.0,16.8,30.23,SW,225,0.0,-999.0,91,-99.99,,,0.00,Acu-Link.com,2014-01-01 11:16:00,
2014-01-01 06:35:00,18.9,16.7,30.24,West,270,0.0,-999.0,91,-99.99,,,0.00,Acu-Link.com,2014-01-01 11:35:00,
2014-01-01 06:51:00,19.4,17.5,30.24,South,180,0.0,-999.0,92,-99.99,,,0.00,Acu-Link.com,2014-01-01 11:51:00,
2014-01-01 07:06:00,19.8,17.9,30.25,WNW,292,0.0,-999.0,92,-99.99,,,0.00,Acu-Link.com,2014-01-01 12:06:00,
2014-01-01 07:22:00,19.8,17.9,30.25,South,180,0.0,-999.0,92,-99.99,,,0.00,Acu-Link.com,2014-01-01 12:22:00,
2014-01-01 07:52:00,19.8,17.9,30.25,West,270,0.0,-999.0,92,-99.99,,,0.00,Acu-Link.com,2014-01-01 12:52:00,
2014-01-01 08:09:00,19.6,17.9,30.26,West,270,1.7,-999.0,93,-99.99,,,0.00,Acu-Link.com,2014-01-01 13:09:00,
2014-01-01 08:27:00,19.6,17.9,30.26,East,90,0.0,-999.0,93,-99.99,,,0.00,Acu-Link.com,2014-01-01 13:27:00,
2014-01-01 08:49:00,21.4,19.4,30.27,East,90,0.0,-999.0,92,-99.99,,,0.00,Acu-Link.com,2014-01-01 13:49:00,
2014-01-01 09:04:00,22.8,19.8,30.28,South,180,2.2,-999.0,88,-99.99,,,0.00,Acu-Link.com,2014-01-01 14:04:00,
2014-01-01 09:21:00,24.4,20.6,30.28,South,180,1.7,-999.0,85,-99.99,,,0.00,Acu-Link.com,2014-01-01 14:21:00,
2014-01-01 09:36:00,25.2,20.8,30.28,ESE,112,2.2,-999.0,83,-99.99,,,0.00,Acu-Link.com,2014-01-01 14:36:00,
2014-01-01 09:54:00,25.3,20.9,30.28,NNE,22,2.7,-999.0,83,-99.99,,,0.00,Acu-Link.com,2014-01-01 14:54:00,
2014-01-01 10:11:00,26.6,22.4,30.29,NE,45,1.7,-999.0,84,-99.99,,,0.00,Acu-Link.com,2014-01-01 15:11:00,
2014-01-01 10:26:00,27.3,22.5,30.28,SE,135,1.7,-999.0,82,-99.99,,,0.00,Acu-Link.com,2014-01-01 15:26:00,
2014-01-01 10:42:00,27.7,22.9,30.29,SE,135,0.0,-999.0,82,-99.99,,,0.00,Acu-Link.com,2014-01-01 15:42:00,
2014-01-01 10:58:00,28.2,23.7,30.28,ESE,112,1.7,-999.0,83,-99.99,,,0.00,Acu-Link.com,2014-01-01 15:58:00,
2014-01-01 11:14:00,28.4,23.9,30.27,SSE,157,2.2,-999.0,83,-99.99,,,0.00,Acu-Link.com,2014-01-01 16:14:00,
2014-01-01 11:29:00,28.9,23.8,30.26,NNE,22,2.7,-999.0,81,-99.99,,,0.00,Acu-Link.com,2014-01-01 16:29:00,
2014-01-01 11:50:00,29.3,24.2,30.26,NNE,22,1.1,-999.0,81,-99.99,,,0.00,Acu-Link.com,2014-01-01 16:50:00,
2014-01-01 12:07:00,28.8,23.4,30.25,SW,225,2.2,-999.0,80,-99.99,,,0.00,Acu-Link.com,2014-01-01 17:07:00,
2014-01-01 12:29:00,28.8,23.1,30.23,NNE,22,1.7,-999.0,79,-99.99,,,0.00,Acu-Link.com,2014-01-01 17:29:00,
2014-01-01 12:49:00,29.3,23.6,30.22,North,0,1.1,-999.0,79,-99.99,,,0.00,Acu-Link.com,2014-01-01 17:49:00,
2014-01-01 13:04:00,29.7,24.0,30.22,ESE,112,2.2,-999.0,79,-99.99,,,0.00,Acu-Link.com,2014-01-01 18:04:00,
2014-01-01 13:31:00,26.8,22.3,30.21,ESE,112,1.1,-999.0,83,-99.99,,,0.00,Acu-Link.com,2014-01-01 18:31:00,
2014-01-01 13:57:00,26.8,22.3,30.20,NNE,22,1.7,-999.0,83,-99.99,,,0.00,Acu-Link.com,2014-01-01 18:57:00,
2014-01-01 14:33:00,29.7,25.2,30.19,SSE,157,1.1,-999.0,83,-99.99,,,0.00,Acu-Link.com,2014-01-01 19:33:00,
2014-01-01 14:48:00,29.8,25.3,30.19,SSE,157,2.2,-999.0,83,-99.99,,,0.00,Acu-Link.com,2014-01-01 19:48:00,
2014-01-01 15:03:00,28.8,24.9,30.20,North,0,2.2,-999.0,85,-99.99,,,0.00,Acu-Link.com,2014-01-01 20:03:00,
2014-01-01 15:19:00,28.6,25.0,30.19,North,0,1.7,-999.0,86,-99.99,,,0.00,Acu-Link.com,2014-01-01 20:19:00,
2014-01-01 15:35:00,28.6,25.0,30.19,NE,45,2.2,-999.0,86,-99.99,,,0.00,Acu-Link.com,2014-01-01 20:35:00,
2014-01-01 15:50:00,27.7,24.6,30.19,NE,45,1.7,-999.0,88,-99.99,,,0.00,Acu-Link.com,2014-01-01 20:50:00,
2014-01-01 16:05:00,27.3,24.2,30.19,North,0,0.0,-999.0,88,-99.99,,,0.00,Acu-Link.com,2014-01-01 21:05:00,
2014-01-01 16:20:00,26.8,24.0,30.18,South,180,0.0,-999.0,89,-99.99,,,0.00,Acu-Link.com,2014-01-01 21:20:00,
2014-01-01 16:36:00,26.2,23.7,30.18,NNE,22,1.1,-999.0,90,-99.99,,,0.00,Acu-Link.com,2014-01-01 21:36:00,
2014-01-01 16:51:00,25.7,23.4,30.17,NNE,22,1.1,-999.0,91,-99.99,,,0.00,Acu-Link.com,2014-01-01 21:51:00,
2014-01-01 17:06:00,25.3,23.6,30.17,NE,45,0.0,-999.0,93,-99.99,,,0.00,Acu-Link.com,2014-01-01 22:06:00,
2014-01-01 17:21:00,25.2,23.7,30.17,NNE,22,1.1,-999.0,94,-99.99,,,0.00,Acu-Link.com,2014-01-01 22:21:00,
2014-01-01 17:36:00,25.0,23.5,30.17,NNE,22,1.7,-999.0,94,-99.99,,,0.00,Acu-Link.com,2014-01-01 22:36:00,
2014-01-01 17:51:00,24.8,23.3,30.16,NNE,22,1.7,-999.0,94,-99.99,,,0.00,Acu-Link.com,2014-01-01 22:51:00,
2014-01-01 18:07:00,24.8,23.3,30.17,NE,45,1.7,-999.0,94,-99.99,,,0.00,Acu-Link.com,2014-01-01 23:07:00,
2014-01-01 18:22:00,24.8,23.3,30.17,NE,45,0.0,-999.0,94,-99.99,,,0.00,Acu-Link.com,2014-01-01 23:22:00,
2014-01-01 18:37:00,24.8,23.3,30.17,NNE,22,1.7,-999.0,94,-99.99,,,0.00,Acu-Link.com,2014-01-01 23:37:00,
2014-01-01 18:52:00,24.8,23.3,30.18,NE,45,2.2,-999.0,94,-99.99,,,0.00,Acu-Link.com,2014-01-01 23:52:00,
2014-01-01 19:07:00,24.8,23.3,30.17,East,90,0.0,-999.0,94,-99.99,,,0.00,Acu-Link.com,2014-01-02 00:07:00,
2014-01-01 19:22:00,24.8,23.3,30.17,East,90,0.0,-999.0,94,-99.99,,,0.00,Acu-Link.com,2014-01-02 00:22:00,
2014-01-01 19:37:00,24.8,23.6,30.17,NNE,22,1.1,-999.0,95,-99.99,,,0.00,Acu-Link.com,2014-01-02 00:37:00,
2014-01-01 19:53:00,25.0,23.8,30.16,NE,45,2.2,-999.0,95,-99.99,,,0.00,Acu-Link.com,2014-01-02 00:53:00,
2014-01-01 20:08:00,25.0,23.8,30.16,ENE,67,0.0,-999.0,95,-99.99,,,0.00,Acu-Link.com,2014-01-02 01:08:00,
2014-01-01 20:23:00,25.0,23.8,30.16,South,180,0.0,-999.0,95,-99.99,,,0.00,Acu-Link.com,2014-01-02 01:23:00,
2014-01-01 20:38:00,24.8,23.6,30.15,SE,135,0.0,-999.0,95,-99.99,,,0.00,Acu-Link.com,2014-01-02 01:38:00,
2014-01-01 20:53:00,24.3,23.6,30.14,NNE,22,1.1,-999.0,97,-99.99,,,0.00,Acu-Link.com,2014-01-02 01:53:00,
2014-01-01 21:08:00,23.7,23.0,30.14,ENE,67,0.0,-999.0,97,-99.99,,,0.00,Acu-Link.com,2014-01-02 02:08:00,
2014-01-01 21:24:00,23.2,22.5,30.13,East,90,0.0,-999.0,97,-99.99,,,0.00,Acu-Link.com,2014-01-02 02:24:00,
2014-01-01 21:39:00,22.5,21.8,30.13,NW,315,0.0,-999.0,97,-99.99,,,0.00,Acu-Link.com,2014-01-02 02:39:00,
2014-01-01 21:54:00,21.6,20.9,30.12,NE,45,0.0,-999.0,97,-99.99,,,0.00,Acu-Link.com,2014-01-02 02:54:00,
2014-01-01 22:09:00,20.8,20.1,30.12,NE,45,0.0,-999.0,97,-99.99,,,0.00,Acu-Link.com,2014-01-02 03:09:00,
2014-01-01 22:24:00,19.9,19.4,30.11,WNW,292,0.0,-999.0,98,-99.99,,,0.00,Acu-Link.com,2014-01-02 03:24:00,
2014-01-01 22:39:00,19.2,18.7,30.10,ESE,112,0.0,-999.0,98,-99.99,,,0.00,Acu-Link.com,2014-01-02 03:39:00,
2014-01-01 22:55:00,18.9,18.4,30.10,West,270,0.0,-999.0,98,-99.99,,,0.00,Acu-Link.com,2014-01-02 03:55:00,
2014-01-01 23:10:00,18.1,17.4,30.09,NE,45,0.0,-999.0,97,-99.99,,,0.00,Acu-Link.com,2014-01-02 04:10:00,
2014-01-01 23:25:00,18.0,17.3,30.09,SSE,157,0.0,-999.0,97,-99.99,,,0.00,Acu-Link.com,2014-01-02 04:25:00,
2014-01-01 23:40:00,18.0,17.5,30.07,ENE,67,0.0,-999.0,98,-99.99,,,0.00,Acu-Link.com,2014-01-02 04:40:00,
2014-01-01 23:55:00,18.1,17.6,30.06,NE,45,0.0,-999.0,98,-99.99,,,0.00,Acu-Link.com,2014-01-02 04:55:00,